EW5549 Weather Reports


Display with metric or nautical units.
time (UTC)temp
F
wind
direction
speed
MPH
gust
MPH
rain 1hr
in
rain 24hr
in
rain mn
in
humidity
%
barometer
mb
20260510133742 45 86 0.0 0.0 0.00 0.00 0.00 70 1022.1
20260510133238 44 71 0.0 0.0 0.00 0.00 0.00 69 1022.1
20260510132734 43 71 0.0 0.0 0.00 0.00 0.00 72 1022.1
20260510132232 43 71 0.0 0.0 0.00 0.00 0.00 73 1022.3
20260510131728 42 72 0.0 0.0 0.00 0.00 0.00 76 1022.3
20260510131227 42 72 0.0 0.0 0.00 0.00 0.00 76 1022.2
20260510130723 41 72 0.0 0.0 0.00 0.00 0.00 78 1022.2
20260510130220 40 72 0.0 0.0 0.00 0.00 0.00 80 1022.2
20260510125716 39 87 1.0 1.0 0.00 0.00 0.00 81 1022.2
20260510125212 38 87 2.0 2.0 0.00 0.00 0.00 82 1022.2
20260510124709 37 94 1.0 1.0 0.00 0.00 0.00 84 1022.2
20260510124207 36 90 1.0 1.0 0.00 0.00 0.00 85 1022.2
20260510123702 36 79 2.0 2.0 0.00 0.00 0.00 84 1022.1
20260510123158 36 23 2.0 2.0 0.00 0.00 0.00 84 1022.2
20260510122655 36 279 0.0 0.0 0.00 0.00 0.00 84 1022.2
20260510122151 36 279 1.0 1.0 0.00 0.00 0.00 84 1022.1
20260510121647 35 279 1.0 1.0 0.00 0.00 0.00 84 1022.2
20260510121144 36 279 0.0 0.0 0.00 0.00 0.00 83 1022.1
20260510120642 36 279 3.0 3.0 0.00 0.00 0.00 83 1021.8
20260510120138 36 279 2.0 2.0 0.00 0.00 0.00 84 1022.1
20260510115634 36 279 1.0 1.0 0.00 0.00 0.00 84 1021.8
20260510115132 37 279 2.0 2.0 0.00 0.00 0.00 82 1021.7
20260510114627 37 279 3.0 3.0 0.00 0.00 0.00 82 1022.1
20260510114124 36 279 2.0 2.0 0.00 0.00 0.00 82 1021.7
20260510113619 36 279 0.0 0.0 0.00 0.00 0.00 83 1021.8
20260510113117 36 279 1.0 2.0 0.00 0.00 0.00 82 1021.8
20260510112613 36 279 0.0 0.0 0.00 0.00 0.00 83 1021.8
20260510112110 37 279 1.0 1.0 0.00 0.00 0.00 81 1021.8
20260510111606 38 279 0.0 0.0 0.00 0.00 0.00 79 1022.0
20260510111102 39 235 2.0 2.0 0.00 0.00 0.00 78 1022.0
20260510110558 38 159 1.0 1.0 0.00 0.00 0.00 78 1021.8
20260510110055 37 85 1.0 1.0 0.00 0.00 0.00 82 1022.0
20260510105551 37 82 0.0 1.0 0.00 0.00 0.00 82 1022.0
20260510105045 38 93 2.0 2.0 0.00 0.00 0.00 81 1022.1
20260510104542 38 115 0.0 0.0 0.00 0.00 0.00 79 1022.0
20260510104039 38 115 0.0 0.0 0.00 0.00 0.00 79 1022.0
20260510103536 39 182 1.0 1.0 0.00 0.00 0.00 79 1021.7
20260510103032 39 181 0.0 1.0 0.00 0.00 0.00 77 1022.0
20260510102528 41 181 1.0 1.0 0.00 0.00 0.00 76 1021.7
20260510102024 41 163 0.0 0.0 0.00 0.00 0.00 74 1021.8
20260510101522 40 121 0.0 0.0 0.00 0.00 0.00 78 1021.7
20260510101020 39 161 0.0 0.0 0.00 0.00 0.00 79 1021.8
20260510100516 39 102 0.0 1.0 0.00 0.00 0.00 80 1022.2
20260510100013 40 102 0.0 0.0 0.00 0.00 0.00 79 1021.6
20260510095509 40 105 0.0 0.0 0.00 0.00 0.00 79 1021.6
20260510095008 39 159 2.0 2.0 0.00 0.00 0.00 80 1021.6
20260510094503 40 101 0.0 0.0 0.00 0.00 0.00 80 1021.7
20260510093959 39 101 0.0 0.0 0.00 0.00 0.00 81 1021.8
20260510093455 39 132 3.0 3.0 0.00 0.00 0.00 80 1021.7
20260510092951 39 102 0.0 0.0 0.00 0.00 0.00 82 1021.8
20260510092449 39 100 0.0 0.0 0.00 0.00 0.00 81 1021.8
20260510091948 40 100 1.0 1.0 0.00 0.00 0.00 80 1021.6
20260510091446 40 218 0.0 0.0 0.00 0.00 0.00 79 1021.7
20260510090942 41 218 0.0 0.0 0.00 0.00 0.00 78 1021.5
20260510090439 41 218 1.0 1.0 0.00 0.00 0.00 77 1021.8
20260510085934 42 235 3.0 3.0 0.00 0.00 0.00 76 1021.6
20260510085430 41 172 2.0 2.0 0.00 0.00 0.00 77 1021.4
20260510084925 41 124 1.0 1.0 0.00 0.00 0.00 77 1021.3
20260510084423 41 107 2.0 2.0 0.00 0.00 0.00 78 1021.5
20260510083920 41 11 0.0 0.0 0.00 0.00 0.00 78 1021.4
20260510083416 41 347 0.0 0.0 0.00 0.00 0.00 78 1021.3
20260510082911 41 36 0.0 0.0 0.00 0.00 0.00 78 1021.5
20260510082409 41 36 0.0 0.0 0.00 0.00 0.00 79 1021.6
20260510081907 41 36 0.0 0.0 0.00 0.00 0.00 78 1021.5
20260510081404 42 20 0.0 0.0 0.00 0.00 0.00 76 1021.6
20260510080900 42 5 0.0 0.0 0.00 0.00 0.00 76 1021.5
20260510080354 42 3 0.0 0.0 0.00 0.00 0.00 75 1021.6
20260510075852 43 3 0.0 0.0 0.00 0.00 0.00 73 1021.5
20260510075350 43 354 0.0 1.0 0.00 0.00 0.00 73 1021.6
20260510074845 44 349 1.0 1.0 0.00 0.00 0.00 70 1021.5
20260510074343 46 84 0.0 0.0 0.00 0.00 0.00 66 1021.6
20260510073839 46 85 0.0 0.0 0.00 0.00 0.00 65 1021.4
20260510073335 46 84 0.0 0.0 0.00 0.00 0.00 65 1021.4
20260510072831 46 84 0.0 0.0 0.00 0.00 0.00 65 1021.4
20260510072328 46 85 0.0 0.0 0.00 0.00 0.00 65 1021.6
20260510071819 46 84 0.0 0.0 0.00 0.00 0.00 66 1021.5
20260510071315 46 44 0.0 0.0 0.00 0.00 0.00 65 1021.4
20260510070814 48 157 1.0 1.0 0.00 0.00 0.00 62 1021.6
20260510070305 48 170 3.0 3.0 0.00 0.00 0.00 61 1021.4
20260510065805 48 124 2.0 2.0 0.00 0.00 0.00 63 1021.3
20260510065306 48 118 2.0 2.0 0.00 0.00 0.00 62 1021.4
20260510064758 48 107 1.0 1.0 0.00 0.00 0.00 62 1021.4
20260510064257 47 106 0.0 0.0 0.00 0.00 0.00 62 1021.2
20260510063752 47 105 1.0 1.0 0.00 0.00 0.00 64 1021.4
20260510063248 47 55 1.0 1.0 0.00 0.00 0.00 65 1021.2
20260510062745 48 17 0.0 0.0 0.00 0.00 0.00 62 1021.4
20260510062241 48 16 0.0 0.0 0.00 0.00 0.00 60 1021.3
20260510061736 48 339 2.0 2.0 0.00 0.00 0.00 61 1021.2
20260510061234 50 19 3.0 3.0 0.00 0.00 0.00 60 1021.3
20260510060730 49 189 3.0 3.0 0.00 0.00 0.00 60 1020.9
20260510060227 48 162 2.0 2.0 0.00 0.00 0.00 61 1021.2
20260510055723 47 124 0.0 0.0 0.00 0.00 0.00 62 1020.9
20260510055222 49 135 0.0 0.0 0.00 0.00 0.00 60 1020.8
20260510054722 49 144 2.0 2.0 0.00 0.00 0.00 59 1020.9
20260510054218 49 164 2.0 2.0 0.00 0.00 0.00 59 1021.1
20260510053717 49 154 2.0 2.0 0.00 0.00 0.00 59 1020.9
20260510053214 50 164 3.0 3.0 0.00 0.00 0.00 57 1021.1
20260510052710 49 174 2.0 2.0 0.00 0.00 0.00 58 1020.9
20260510052206 49 136 2.0 2.0 0.00 0.00 0.00 60 1020.9
20260510051702 50 107 2.0 2.0 0.00 0.00 0.00 59 1020.9
20260510051158 50 94 1.0 1.0 0.00 0.00 0.00 59 1020.6
20260510050656 51 96 1.0 2.0 0.00 0.00 0.00 57 1020.7
20260510050153 51 107 1.0 1.0 0.00 0.00 0.00 56 1020.8
20260510045649 51 96 1.0 1.0 0.00 0.00 0.00 55 1020.7
20260510045146 51 118 3.0 3.0 0.00 0.00 0.00 55 1020.6
20260510044642 52 90 2.0 2.0 0.00 0.00 0.00 54 1020.5
20260510044140 52 81 1.0 1.0 0.00 0.00 0.00 54 1020.5
20260510043636 51 39 1.0 1.0 0.00 0.00 0.00 54 1020.6
20260510043132 54 27 0.0 0.0 0.00 0.00 0.00 49 1020.4
20260510042630 54 206 0.0 0.0 0.00 0.00 0.00 48 1020.5
20260510042126 54 224 0.0 0.0 0.00 0.00 0.00 48 1020.4
20260510041623 53 240 0.0 0.0 0.00 0.00 0.00 49 1020.6
20260510041120 55 246 0.0 0.0 0.00 0.00 0.00 48 1020.5
20260510040617 56 244 1.0 2.0 0.00 0.00 0.00 45 1020.3
20260510040113 57 256 2.0 2.0 0.00 0.00 0.00 45 1020.5
20260510035609 57 245 2.0 2.0 0.00 0.00 0.00 45 1020.4
20260510035104 57 235 4.0 5.0 0.00 0.00 0.00 44 1020.2
20260510034602 57 241 3.0 3.0 0.00 0.00 0.00 44 1020.3
20260510034059 58 255 3.0 3.0 0.00 0.00 0.00 43 1019.8
20260510033555 58 251 3.0 3.0 0.00 0.00 0.00 43 1019.8
20260510033053 58 245 4.0 5.0 0.00 0.00 0.00 42 1020.1
20260510032549 59 282 2.0 2.0 0.00 0.00 0.00 42 1019.6
20260510032044 60 270 4.0 5.0 0.00 0.00 0.00 40 1019.6
20260510031539 60 270 4.0 6.0 0.00 0.00 0.00 39 1019.6
20260510031035 59 291 2.0 2.0 0.00 0.00 0.00 41 1019.5
20260510030531 59 308 1.0 1.0 0.00 0.00 0.00 42 1019.3
20260510030029 60 247 2.0 2.0 0.00 0.00 0.00 41 1019.4
20260510025526 61 252 2.0 2.0 0.00 0.00 0.00 40 1019.2
20260510025023 61 247 3.0 3.0 0.00 0.00 0.00 40 1019.2
20260510024520 62 257 3.0 3.0 0.00 0.00 0.00 39 1019.1
20260510024016 62 277 3.0 3.0 0.00 0.00 0.00 38 1019.2
20260510023512 63 280 3.0 3.0 0.00 0.00 0.00 37 1018.9
20260510023010 62 293 3.0 3.0 0.00 0.00 0.00 39 1019.1
20260510022508 62 292 3.0 3.0 0.00 0.00 0.00 41 1018.8
20260510022008 63 305 4.0 5.0 0.00 0.00 0.00 39 1019.1
20260510021505 64 304 4.0 5.0 0.00 0.00 0.00 39 1018.8
20260510021003 65 278 5.0 6.0 0.00 0.00 0.00 37 1018.7
20260510020457 66 293 4.0 5.0 0.00 0.00 0.00 37 1018.6
20260510015953 66 280 5.0 6.0 0.00 0.00 0.00 37 1018.8
20260510015448 67 283 5.0 6.0 0.00 0.00 0.00 36 1018.7
20260510014943 67 316 5.0 6.0 0.00 0.00 0.00 35 1018.5
20260510014442 67 286 5.0 6.0 0.00 0.00 0.00 34 1018.5
20260510013938 68 297 7.0 8.0 0.00 0.00 0.00 33 1018.6
20260510013432 67 280 4.0 5.0 0.00 0.00 0.00 35 1018.5
20260510012929 67 237 5.0 6.0 0.00 0.00 0.00 34 1018.5
20260510012424 68 264 6.0 7.0 0.00 0.00 0.00 33 1018.6
20260510011919 67 264 6.0 7.0 0.00 0.00 0.00 34 1018.5
20260510011414 68 263 5.0 6.0 0.00 0.00 0.00 33 1018.5
20260510010910 67 272 3.0 3.0 0.00 0.00 0.00 33 1018.6
20260510010408 67 255 4.0 5.0 0.00 0.00 0.00 33 1018.6
20260510005904 68 252 6.0 7.0 0.00 0.00 0.00 33 1018.5
20260510005400 69 236 6.0 7.0 0.00 0.00 0.00 32 1018.6
20260510004858 69 291 6.0 7.0 0.00 0.00 0.00 31 1018.5
20260510004355 69 242 9.0 9.0 0.00 0.00 0.00 30 1018.5
20260510003853 70 282 9.0 10.0 0.00 0.00 0.00 30 1018.7
20260510003350 70 276 8.0 9.0 0.00 0.00 0.00 29 1018.6
20260510002848 70 301 7.0 7.0 0.00 0.00 0.00 30 1018.5
20260510002346 69 305 6.0 7.0 0.00 0.00 0.00 30 1018.6
20260510001842 69 284 5.0 7.0 0.00 0.00 0.00 30 1018.6
20260510001341 70 265 10.0 10.0 0.00 0.00 0.00 28 1018.6
20260510000836 70 283 9.0 9.0 0.00 0.00 0.00 28 1018.7
20260510000334 68 326 5.0 6.0 0.00 0.00 0.00 31 1018.5
20260509235830 68 319 6.0 7.0 0.00 0.00 0.00 32 1018.3
20260509235327 68 293 5.0 6.0 0.00 0.00 0.00 31 1018.4
20260509234823 67 294 8.0 9.0 0.00 0.00 0.00 32 1018.4
20260509234320 68 257 9.0 10.0 0.00 0.00 0.00 31 1018.3
20260509233818 70 253 5.0 6.0 0.00 0.00 0.00 29 1018.5
20260509233315 69 236 8.0 9.0 0.00 0.00 0.00 30 1018.5
20260509232811 69 262 8.0 9.0 0.00 0.00 0.00 29 1018.5
20260509232309 69 255 9.0 10.0 0.00 0.00 0.00 29 1018.5
20260509231805 70 288 11.0 13.0 0.00 0.00 0.00 30 1018.2
20260509231302 70 230 4.0 6.0 0.00 0.00 0.00 29 1018.5
20260509230800 70 298 3.0 3.0 0.00 0.00 0.00 30 1018.2
20260509230256 68 217 3.0 5.0 0.00 0.00 0.00 32 1018.5
20260509225751 68 268 2.0 2.0 0.00 0.00 0.00 30 1018.5
20260509225248 68 194 2.0 2.0 0.00 0.00 0.00 31 1018.7
20260509224744 68 242 7.0 8.0 0.00 0.00 0.00 30 1018.6
20260509224241 69 317 3.0 3.0 0.00 0.00 0.00 30 1018.7
20260509223738 69 232 10.0 11.0 0.00 0.00 0.00 30 1018.7
20260509223235 69 297 4.0 5.0 0.00 0.00 0.00 29 1018.8
20260509222732 69 356 5.0 7.0 0.00 0.00 0.00 30 1018.7
20260509222227 69 51 2.0 2.0 0.00 0.00 0.00 32 1018.6
20260509221723 68 357 2.0 2.0 0.00 0.00 0.00 30 1018.8
20260509221219 68 62 1.0 1.0 0.00 0.00 0.00 32 1018.8
20260509220715 67 327 2.0 3.0 0.00 0.00 0.00 31 1018.8
20260509220212 68 26 2.0 2.0 0.00 0.00 0.00 30 1018.8
20260509215707 68 350 3.0 5.0 0.00 0.00 0.00 31 1018.8
20260509215204 69 28 3.0 3.0 0.00 0.00 0.00 31 1018.8
20260509214701 67 123 1.0 2.0 0.00 0.00 0.00 30 1019.1
20260509214158 68 172 3.0 3.0 0.00 0.00 0.00 30 1018.8
20260509213655 66 82 2.0 2.0 0.00 0.00 0.00 33 1018.9
20260509213151 66 68 4.0 6.0 0.00 0.00 0.00 32 1018.9
20260509212648 66 83 7.0 8.0 0.00 0.00 0.00 34 1019.2
20260509212145 66 4 5.0 6.0 0.00 0.00 0.00 31 1019.1
20260509211641 66 90 9.0 10.0 0.00 0.00 0.00 31 1018.8
20260509211138 66 94 4.0 5.0 0.00 0.00 0.00 34 1019.1
20260509210635 66 146 4.0 6.0 0.00 0.00 0.00 33 1019.2
20260509210132 65 166 3.0 5.0 0.00 0.00 0.00 32 1019.3
20260509205627 66 96 7.0 8.0 0.00 0.00 0.00 34 1019.2
20260509205121 65 67 2.0 2.0 0.00 0.00 0.00 33 1019.4
20260509204617 65 140 7.0 8.0 0.00 0.00 0.00 34 1019.3
20260509204108 66 91 5.0 6.0 0.00 0.00 0.00 36 1019.5
20260509203604 65 64 4.0 5.0 0.00 0.00 0.00 33 1019.5
20260509203103 66 91 3.0 3.0 0.00 0.00 0.00 34 1019.4
20260509202603 64 68 1.0 2.0 0.00 0.00 0.00 37 1019.5
20260509202058 63 40 1.0 1.0 0.00 0.00 0.00 36 1019.5
20260509201553 64 71 1.0 1.0 0.00 0.00 0.00 35 1019.5
20260509201051 63 59 3.0 3.0 0.00 0.00 0.00 35 1019.6
20260509200550 64 118 4.0 5.0 0.00 0.00 0.00 34 1019.6
20260509200047 64 308 3.0 3.0 0.00 0.00 0.00 34 1019.7
20260509195543 65 2 3.0 3.0 0.00 0.00 0.00 33 1019.8
20260509195038 62 292 1.0 2.0 0.00 0.00 0.00 35 1019.7
20260509194533 62 278 3.0 3.0 0.00 0.00 0.00 35 1019.9
20260509194031 63 238 2.0 2.0 0.00 0.00 0.00 36 1019.8
20260509193531 63 296 1.0 2.0 0.00 0.00 0.00 35 1020.2
20260509193028 62 56 0.0 1.0 0.00 0.00 0.00 37 1019.9
20260509192524 62 284 1.0 2.0 0.00 0.00 0.00 34 1020.2
20260509192019 63 321 5.0 6.0 0.00 0.00 0.00 33 1019.9
20260509191514 63 339 1.0 1.0 0.00 0.00 0.00 35 1020.1
20260509191010 63 15 1.0 1.0 0.00 0.00 0.00 35 1020.1
20260509190507 62 293 5.0 6.0 0.00 0.00 0.00 34 1020.2
20260509190006 62 336 3.0 6.0 0.00 0.00 0.00 35 1020.3
20260509185502 62 2 1.0 2.0 0.00 0.00 0.00 36 1020.2
20260509184958 61 281 1.0 1.0 0.00 0.00 0.00 34 1020.2
20260509184457 62 314 3.0 3.0 0.00 0.00 0.00 37 1020.3
20260509183952 61 287 7.0 8.0 0.00 0.00 0.00 38 1020.2
20260509183447 61 331 4.0 5.0 0.00 0.00 0.00 37 1020.2
20260509182943 60 289 7.0 8.0 0.00 0.00 0.00 39 1020.2
20260509182440 60 287 8.0 9.0 0.00 0.00 0.00 36 1020.1
20260509181937 60 268 5.0 6.0 0.00 0.00 0.00 37 1020.2
20260509181436 60 292 5.0 6.0 0.00 0.00 0.00 37 1020.2
20260509180933 60 332 8.0 9.0 0.00 0.00 0.00 37 1020.3
20260509180428 59 289 6.0 7.0 0.00 0.00 0.00 37 1020.3
20260509175925 59 312 7.0 8.0 0.00 0.00 0.00 38 1020.5
20260509175421 59 280 8.0 9.0 0.00 0.00 0.00 36 1020.4
20260509174918 59 287 9.0 9.0 0.00 0.00 0.00 37 1020.3
20260509174414 59 264 10.0 11.0 0.00 0.00 0.00 38 1020.3
20260509173910 59 264 8.0 8.0 0.00 0.00 0.00 39 1020.2
20260509173409 59 254 6.0 7.0 0.00 0.00 0.00 39 1020.2
20260509172906 59 252 7.0 8.0 0.00 0.00 0.00 38 1020.2
20260509172403 59 297 6.0 8.0 0.00 0.00 0.00 42 1020.1
20260509171859 58 286 5.0 6.0 0.00 0.00 0.00 41 1019.9
20260509171355 59 300 8.0 9.0 0.00 0.00 0.00 39 1020.1
20260509170851 59 336 5.0 6.0 0.00 0.00 0.00 40 1020.1
20260509170347 59 306 7.0 9.0 0.00 0.00 0.00 39 1020.1
20260509165842 59 292 9.0 10.0 0.00 0.00 0.00 39 1019.9
20260509165337 59 288 9.0 10.0 0.00 0.00 0.00 38 1019.9
20260509164833 59 300 5.0 6.0 0.00 0.00 0.00 39 1019.9
20260509164329 60 289 7.0 8.0 0.00 0.00 0.00 40 1019.9
20260509163826 59 286 9.0 10.0 0.00 0.00 0.00 37 1019.9
20260509163322 59 306 5.0 8.0 0.00 0.00 0.00 41 1019.9
20260509162821 59 321 6.0 7.0 0.00 0.00 0.00 38 1019.9
20260509162314 59 313 10.0 13.0 0.00 0.00 0.00 38 1019.8
20260509161811 59 296 5.0 6.0 0.00 0.00 0.00 40 1019.7
20260509161307 59 305 6.0 9.0 0.00 0.00 0.00 39 1019.8
20260509160803 59 15 4.0 5.0 0.00 0.00 0.00 41 1019.8
20260509160259 59 23 3.0 5.0 0.00 0.00 0.00 39 1019.6
20260509155754 59 266 2.0 2.0 0.00 0.00 0.00 37 1019.6
20260509155251 60 48 3.0 3.0 0.00 0.00 0.00 41 1019.5
20260509154747 61 16 3.0 3.0 0.00 0.00 0.00 39 1019.6
20260509154244 60 22 1.0 1.0 0.00 0.00 0.00 39 1019.4
20260509153741 59 6 1.0 1.0 0.00 0.00 0.00 41 1019.5
20260509153237 59 16 0.0 1.0 0.00 0.00 0.00 39 1019.7
20260509152734 57 324 2.0 2.0 0.00 0.00 0.00 40 1019.7
20260509152230 57 294 4.0 5.0 0.00 0.00 0.00 41 1019.7
20260509151727 57 283 6.0 7.0 0.00 0.00 0.00 40 1019.5
20260509151224 57 356 3.0 3.0 0.00 0.00 0.00 43 1019.5
20260509150722 56 273 6.0 7.0 0.00 0.00 0.00 42 1019.5
20260509150220 56 294 3.0 3.0 0.00 0.00 0.00 43 1019.6
20260509145716 56 349 1.0 1.0 0.00 0.00 0.00 42 1019.6
20260509145211 56 338 3.0 3.0 0.00 0.00 0.00 43 1019.6
20260509144708 56 288 4.0 6.0 0.00 0.00 0.00 41 1019.5
20260509144205 55 302 2.0 2.0 0.00 0.00 0.00 46 1019.6
20260509143702 55 312 3.0 3.0 0.00 0.00 0.00 47 1019.6
20260509143200 55 307 4.0 5.0 0.00 0.00 0.00 46 1019.4
20260509142655 55 276 5.0 6.0 0.00 0.00 0.00 44 1019.5
20260509142152 55 278 5.0 6.0 0.00 0.00 0.00 44 1019.3
20260509141648 55 261 7.0 8.0 0.00 0.00 0.00 43 1019.4
20260509141144 54 253 6.0 7.0 0.00 0.00 0.00 44 1019.3
20260509140641 54 276 7.0 8.0 0.00 0.00 0.00 45 1019.2
20260509140139 54 286 5.0 6.0 0.00 0.00 0.00 45 1019.3
20260509135636 54 264 5.0 5.0 0.00 0.00 0.00 47 1019.2
20260509135134 54 265 7.0 8.0 0.00 0.00 0.00 44 1019.2
20260509134630 54 266 7.0 8.0 0.00 0.00 0.00 46 1018.8